Back to catalog

SAUDICOMSAT 4

AliveCommunicationsSSO
NORAD 31127·PAYLOAD·🇸🇦 Saudi Arabia

Launched Apr 17, 2007 from Baikonur Cosmodrome

Loading…

Next Passes (next 24 hours)

TLE

FreshSource: Space-Track

Epoch: Sep 14, 2026, 09:09 UTC

1 31127U 07012L   26257.38169211  .00000492  00000-0  10006-3 0  9992
2 31127  98.4098 231.8206 0062939 340.9694  18.9157 14.64593699 34341

Track SAUDICOMSAT 4 in real time with AllMySat

Download on the App Store